Theta_e
335 330 331 329 329 325 318 314 303 306 304 299 300 302 302 308 308 306 305 308 305 310 317 317 316 311 309 309 315 320 324 320 322 316 319 336 348 349 352 353 353 353 351 351 354 355 357 357 356 357 357 357 357 356 356 356 357 357 356 356 355 355 355 354 353 353 353 352 352 352 351 352 352 352 352 351 350 350 350 349 350 348 345 347 347 346 345 346 345 345 346 346 346 346 344 343 343
328 329 331 328 321 320 311 313 304 302 302 299 301 304 305 307 306 305 305 307 309 310 313 313 312 312 312 312 315 323 323 326 334 335 341 343 351 351 355 355 353 351 350 351 353 353 352 357 356 356 356 357 356 356 357 357 356 356 356 356 355 355 354 354 353 353 352 352 352 351 351 352 352 352 351 351 350 351 351 351 350 347 346 348 347 347 346 345 346 347 347 347 348 348 347 345 343
329 328 321 322 320 318 317 311 299 300 299 298 302 304 308 305 304 305 307 307 309 310 311 311 312 311 311 314 316 319 323 332 338 341 341 349 342 351 355 356 354 350 350 351 351 351 350 354 355 355 356 356 356 356 356 356 356 356 355 355 355 354 354 353 353 352 352 351 351 351 351 351 351 350 350 350 352 352 352 351 347 347 347 348 347 346 346 348 348 347 347 348 348 348 347 346 343
336 324 319 317 311 314 308 305 300 299 298 301 301 305 306 305 305 306 307 308 309 310 310 310 309 323 321 315 324 328 328 331 339 339 339 342 346 352 355 355 355 351 350 349 350 349 351 356 355 355 355 355 355 356 356 356 356 355 355 355 354 354 354 353 352 352 351 351 350 350 351 351 350 350 349 350 352 352 352 350 349 347 347 348 347 348 348 349 348 348 348 348 348 347 347 346 345
329 322 323 317 312 306 305 304 302 301 297 301 300 304 305 306 305 306 307 309 310 310 310 311 309 314 323 326 333 324 329 336 339 341 342 349 354 355 355 355 353 351 348 349 348 349 353 354 354 354 354 355 355 356 356 355 355 355 355 354 354 353 353 352 352 351 351 350 350 350 350 350 350 350 350 351 352 351 350 350 350 349 350 349 350 350 350 351 349 349 348 347 348 347 346 346 346
323 320 320 320 311 317 309 302 301 300 303 305 303 304 305 307 306 307 308 309 311 311 312 311 310 323 322 324 334 334 340 333 339 342 345 348 354 356 355 354 352 350 348 350 349 350 352 354 354 354 353 355 355 355 355 355 354 355 354 354 353 353 352 352 352 351 351 351 351 351 350 350 351 351 352 353 351 350 349 349 350 351 349 350 350 350 350 349 348 348 348 347 347 346 346 346 346
318 317 314 313 313 312 302 300 300 302 304 306 304 305 306 307 307 307 308 309 311 312 314 312 318 319 320 334 337 342 345 344 343 342 348 351 354 356 356 352 351 350 349 350 350 351 350 353 353 353 353 354 354 354 354 354 354 354 353 353 352 353 352 352 352 351 351 351 351 351 350 351 351 352 352 351 351 349 348 349 350 352 352 351 351 350 349 349 348 348 347 347 346 346 347 346 345
322 313 311 304 304 304 299 300 302 304 303 307 307 306 306 306 308 308 308 308 309 309 313 314 319 317 323 335 325 341 346 346 346 348 351 353 355 356 356 352 350 349 348 350 350 350 355 353 352 352 353 354 354 354 354 353 353 353 353 352 353 353 352 352 352 352 351 351 351 351 350 350 351 351 351 351 352 350 349 349 350 350 351 351 350 349 349 348 348 347 347 346 346 346 346 346 345
318 315 318 306 302 305 301 300 302 306 306 306 306 307 312 308 308 308 308 311 312 312 311 315 315 309 318 325 330 340 342 346 347 350 351 354 355 356 355 351 350 348 349 348 349 354 354 352 352 352 353 353 353 353 353 353 353 353 353 353 353 353 353 352 352 352 352 351 351 350 349 349 350 351 351 351 351 350 350 350 350 350 350 350 350 349 349 348 347 346 346 345 346 345 346 345 346
313 314 307 303 305 301 301 301 301 304 305 306 305 307 307 309 309 309 309 310 312 316 315 315 314 309 325 327 329 338 342 348 349 349 353 355 356 357 356 353 353 350 348 348 350 351 350 353 351 352 352 353 353 353 352 352 353 352 352 353 353 353 352 352 352 352 351 350 350 350 349 349 350 351 350 350 350 350 350 349 350 350 350 350 349 349 348 347 346 346 345 346 346 346 345 346 346
308 310 312 304 299 299 299 301 302 305 305 306 306 308 309 310 309 309 311 312 318 316 315 316 312 311 317 328 334 344 348 348 349 348 353 355 356 356 353 353 352 351 348 349 350 349 349 351 353 352 352 352 351 351 352 352 352 352 352 353 353 353 352 352 351 351 350 349 348 349 350 350 350 350 350 350 350 349 349 349 349 349 350 349 348 348 347 346 346 347 346 346 345 345 345 346 346
307 305 305 299 300 300 301 301 303 304 304 304 305 308 310 309 309 308 310 311 317 317 314 315 312 315 315 328 331 343 346 347 349 351 355 356 354 355 355 353 352 350 350 349 347 348 347 349 351 353 352 351 351 352 352 352 352 352 352 352 352 352 352 351 351 350 349 347 347 348 348 349 350 350 350 349 349 348 348 348 349 349 349 348 347 347 346 346 346 345 345 346 345 345 345 346 345
307 309 303 300 300 302 303 301 302 303 303 304 306 307 310 309 307 308 311 314 315 315 314 316 317 323 317 326 339 344 344 348 350 354 353 353 354 353 354 353 352 350 350 349 347 346 347 347 348 349 351 352 351 351 351 351 351 351 352 352 352 351 352 352 350 349 349 348 348 348 349 349 350 350 349 348 348 348 348 348 348 348 348 347 347 346 346 346 345 344 345 346 345 345 345 345 345
308 310 306 300 304 302 301 302 303 301 301 306 308 308 309 308 309 310 312 310 317 315 326 328 321 323 322 332 334 338 343 348 348 352 352 354 352 353 353 352 352 350 351 349 346 345 345 345 348 349 351 351 351 353 351 351 351 351 351 351 351 351 351 350 349 349 349 348 348 349 349 349 350 349 349 348 348 348 348 347 348 348 347 347 346 345 345 345 344 344 344 345 345 346 346 345 345
308 310 305 303 301 302 303 299 301 301 302 306 307 308 308 311 310 311 311 310 319 326 328 329 327 322 322 324 330 334 343 347 349 352 353 349 351 351 348 348 348 347 347 348 346 345 344 345 346 349 350 349 350 348 349 354 351 351 351 351 351 351 350 350 349 349 349 349 350 350 349 349 349 350 349 348 348 348 348 347 347 347 346 346 345 344 344 344 343 343 342 344 345 346 346 345 345
311 309 305 301 299 300 302 301 303 301 302 307 307 309 308 309 312 309 312 313 320 325 322 321 328 325 331 330 332 336 345 347 349 349 339 339 336 340 340 340 343 348 348 346 346 344 344 345 346 347 347 348 348 347 348 350 352 351 351 351 351 351 350 350 349 349 349 349 350 349 349 349 349 349 350 349 349 348 347 346 347 346 345 345 345 344 344 342 341 341 342 343 344 345 345 345 344
311 309 302 300 298 300 302 302 302 299 305 307 308 308 305 306 311 312 315 315 316 322 321 332 328 335 331 333 340 346 346 348 346 345 342 340 337 338 340 342 340 340 342 343 350 344 347 345 345 345 346 346 347 347 348 349 349 352 351 351 351 350 350 350 350 349 349 349 350 349 348 349 350 349 349 347 349 348 347 347 346 345 345 345 344 343 342 341 340 340 342 343 343 344 344 344 345
308 302 301 299 301 301 304 302 304 304 304 306 307 307 307 305 309 311 313 313 317 320 319 331 335 336 337 338 344 346 348 347 348 347 343 341 341 336 336 336 339 337 337 342 342 343 348 349 345 346 345 345 347 349 347 349 350 349 349 350 350 351 350 350 351 348 350 348 349 349 349 349 347 348 349 348 348 347 347 346 345 345 344 344 344 342 341 341 340 340 341 342 343 344 344 345 344
305 302 301 299 303 304 306 305 305 304 304 306 306 308 307 307 308 311 308 310 312 312 319 328 331 334 337 343 341 346 348 348 349 346 344 342 341 340 340 341 335 337 335 340 340 341 341 345 347 349 347 344 344 345 347 347 348 348 348 347 348 349 350 349 348 350 347 348 348 347 349 346 346 345 348 347 346 346 346 345 344 344 343 344 343 341 341 341 342 341 340 340 341 342 345 345 344
307 303 300 301 306 306 307 306 305 306 306 305 306 307 307 308 309 312 308 309 310 310 319 325 328 331 336 339 336 342 345 347 348 347 343 342 343 341 341 339 338 338 339 339 337 342 340 340 342 344 342 344 345 344 347 347 346 347 345 346 347 346 346 347 348 347 346 348 345 348 347 350 348 347 347 347 347 347 346 345 344 343 343 342 341 341 341 341 341 340 340 340 342 340 343 342 342
306 303 301 304 307 304 306 306 306 307 307 306 306 307 306 309 309 309 308 308 309 314 319 321 326 331 334 337 340 343 344 343 345 345 344 344 345 344 343 342 339 342 344 340 339 339 340 341 339 341 343 341 342 343 345 347 348 343 342 342 343 343 344 348 347 348 347 345 347 348 347 347 346 348 349 349 345 345 345 344 344 343 343 343 341 340 338 337 339 336 336 336 336 338 340 341 341
307 303 305 306 307 304 306 307 307 306 307 306 306 305 305 310 309 309 309 306 307 310 316 324 327 327 330 336 339 342 341 342 342 342 343 343 343 343 343 341 342 345 342 337 335 338 340 343 340 341 343 344 345 347 346 345 344 342 340 340 342 343 344 346 346 347 348 346 346 347 348 347 345 348 347 346 346 345 343 343 342 340 343 341 340 339 337 337 337 336 335 334 337 340 340 340 340
301 305 306 307 307 305 307 307 307 306 306 305 305 307 308 307 306 309 309 308 310 315 315 324 328 330 334 336 340 340 340 341 343 342 342 343 343 343 343 337 336 337 340 340 339 338 340 343 341 343 342 342 342 347 346 347 345 344 342 343 342 341 346 346 344 346 347 347 346 346 345 346 343 342 342 343 343 342 340 339 338 338 339 338 340 339 339 337 338 337 337 339 341 337 336 337 339
305 302 306 306 306 305 307 306 306 307 306 305 308 309 306 306 303 309 307 310 315 319 320 327 334 332 335 336 339 339 340 340 341 342 344 344 343 343 337 336 336 338 339 340 340 341 341 340 343 342 341 343 343 347 346 340 344 343 344 345 346 345 343 345 346 347 347 345 347 347 345 341 339 337 340 342 341 340 340 340 342 338 339 339 341 341 340 339 339 341 341 338 336 336 334 336 336
303 302 305 306 307 307 307 307 307 307 307 308 307 305 305 306 306 308 307 311 318 321 322 330 333 334 338 338 337 340 339 340 340 341 344 343 344 343 340 338 338 336 337 338 340 341 341 341 341 340 340 341 343 343 342 340 340 344 347 348 346 347 346 346 346 346 346 349 347 346 347 344 340 341 338 341 341 343 343 345 342 342 342 341 343 339 338 341 341 339 338 337 338 337 336 337 335
304 304 305 305 305 307 307 306 306 307 307 307 305 304 306 307 309 306 309 314 319 323 326 328 333 335 336 336 338 339 339 339 341 341 342 342 343 340 340 340 341 340 340 341 342 341 343 341 341 341 341 342 342 341 340 338 344 344 344 346 347 346 344 346 346 344 346 350 348 347 348 350 343 341 341 341 342 343 344 344 343 342 342 342 342 343 344 340 338 338 340 339 335 337 340 338 338
306 305 305 305 305 306 307 305 307 307 307 307 304 304 305 308 306 303 311 317 321 324 327 330 329 331 332 335 338 339 339 340 341 341 339 341 340 338 339 341 340 340 342 341 342 340 343 343 341 342 341 341 338 339 340 342 344 343 343 347 345 347 347 344 343 345 347 339 345 350 352 351 347 344 342 342 343 343 344 345 343 343 341 341 344 344 345 342 340 340 340 340 340 338 340 340 334
306 306 306 305 305 306 306 307 306 307 304 306 306 303 305 306 306 304 313 318 321 325 326 328 327 333 332 334 336 338 339 339 337 339 337 339 337 334 336 339 339 341 339 339 341 342 340 341 342 342 341 341 338 337 340 342 344 348 345 344 345 344 349 348 346 345 345 347 347 350 351 349 348 345 345 343 341 342 343 343 344 343 342 342 343 341 342 343 340 337 344 347 345 345 342 342 342
305 305 300 302 304 303 305 304 305 306 304 306 307 303 301 303 302 307 314 318 318 325 326 328 329 329 326 332 331 333 334 333 334 332 337 338 336 335 333 340 340 339 340 343 344 341 342 345 342 340 341 341 337 337 341 343 345 345 343 344 343 344 345 346 343 345 343 344 342 344 345 345 343 345 348 343 340 341 343 343 341 342 343 344 344 344 343 342 342 344 344 344 342 342 343 342 339
305 304 302 301 301 300 304 306 306 304 305 306 305 294 298 302 305 308 314 314 316 322 324 326 330 329 325 328 327 328 331 332 331 332 331 333 335 337 334 339 341 341 340 343 342 341 343 343 343 343 342 341 342 342 342 343 345 345 345 344 344 345 344 344 346 345 347 341 343 343 342 341 341 343 345 343 342 341 342 342 341 342 342 343 344 345 342 340 340 338 341 340 340 341 340 342 338
300 303 303 298 298 298 305 304 305 302 306 305 305 295 298 303 305 309 313 313 314 318 325 324 325 329 329 326 329 329 328 331 333 335 335 336 338 339 340 341 341 341 340 341 340 342 344 342 342 340 339 341 343 344 344 343 344 345 344 344 346 346 342 342 347 344 350 340 340 341 341 341 341 342 341 343 341 343 343 343 341 342 342 343 342 342 342 342 343 341 337 338 338 339 338 339 339
302 298 296 299 297 300 303 306 304 301 304 307 303 297 298 304 306 312 313 312 313 315 323 324 324 327 328 328 326 323 327 331 335 335 336 336 338 338 340 339 341 342 341 341 341 341 341 341 342 341 341 341 343 344 345 344 344 344 344 343 346 344 343 344 346 346 340 341 339 342 344 343 342 340 340 343 347 344 342 343 346 344 343 343 341 343 345 342 342 341 341 340 335 336 336 336 338
301 298 299 298 298 299 300 303 305 305 304 305 302 297 300 301 309 311 312 312 312 313 320 325 324 325 328 327 328 325 326 333 330 336 335 335 337 339 340 341 342 343 342 341 342 342 341 342 342 341 341 341 341 343 344 344 343 343 342 343 342 343 341 344 345 349 342 344 344 342 342 340 340 339 339 342 344 340 341 342 345 344 343 342 343 343 343 342 342 342 341 341 339 334 332 333 337
298 300 297 301 298 299 298 302 305 304 302 300 303 299 301 303 309 311 311 312 311 312 317 323 324 324 325 327 325 324 326 329 328 336 335 336 337 339 340 341 343 343 344 343 344 343 342 341 341 341 341 341 341 342 343 343 342 342 341 341 343 343 345 345 344 342 342 345 344 339 341 342 339 339 339 339 342 340 340 341 341 340 343 344 344 343 342 342 342 342 340 340 339 339 339 334 336
297 298 297 298 300 300 299 298 302 303 303 300 302 301 301 303 306 309 309 311 311 311 316 321 323 324 325 326 325 324 325 326 329 336 337 335 338 340 340 342 342 343 343 343 344 344 342 342 341 339 340 340 340 342 342 342 342 342 341 340 344 344 346 345 343 343 342 341 339 337 339 339 337 336 340 341 339 343 339 339 342 343 343 344 343 341 342 341 342 341 340 339 341 339 336 336 337
300 301 299 299 298 298 297 301 303 303 301 300 300 299 301 302 304 306 310 311 311 311 316 320 323 323 325 325 323 323 323 323 328 337 336 335 336 339 340 342 342 343 342 344 343 344 343 342 342 340 341 339 339 339 340 340 339 338 338 339 340 341 341 340 343 342 343 341 339 340 338 339 339 338 343 343 343 340 340 340 340 340 343 342 341 340 338 338 340 341 340 339 338 337 339 339 339
302 301 300 299 299 300 302 301 303 304 300 299 300 301 301 303 304 306 308 311 310 310 312 315 319 320 320 322 324 324 327 323 329 335 336 335 334 339 340 340 340 342 341 342 341 343 343 340 340 338 340 339 338 338 338 338 336 334 336 336 336 337 338 340 339 341 338 339 338 339 340 341 341 341 342 341 341 340 339 338 338 342 342 341 341 340 339 340 341 341 339 339 338 335 335 339 339
301 300 298 297 298 297 301 301 303 304 301 299 301 300 301 302 304 306 309 309 308 309 310 312 315 320 321 322 322 323 328 331 334 336 338 337 334 337 339 338 338 338 339 341 339 343 342 341 339 339 340 340 339 339 337 337 338 336 335 336 336 336 337 337 337 339 338 339 340 340 341 341 343 343 341 339 340 338 338 341 341 342 340 340 341 340 341 339 339 340 339 336 338 336 335 337 339
302 299 298 297 298 300 302 302 303 303 301 299 300 299 300 302 304 306 307 308 309 310 310 311 313 316 316 316 318 322 324 326 332 332 336 336 336 337 337 338 338 339 340 341 344 344 341 339 340 339 340 339 339 339 337 337 340 340 339 340 338 338 341 341 340 340 338 338 339 340 340 342 340 340 340 339 340 337 340 342 339 340 341 341 339 339 338 338 338 338 337 335 333 335 335 338 338
300 299 297 295 299 298 296 301 303 303 301 299 300 299 301 303 305 306 307 308 309 310 310 311 313 313 317 317 316 319 320 324 327 331 331 335 335 334 336 337 338 339 339 340 340 341 340 339 338 338 337 337 338 339 338 337 337 340 340 339 340 342 340 340 338 338 338 337 337 340 341 341 340 338 341 338 337 339 341 341 340 340 340 341 340 338 337 334 337 337 337 336 335 330 331 333 338
301 300 299 298 298 299 298 299 302 303 303 304 300 298 298 302 301 303 306 308 308 309 309 310 311 313 316 320 320 320 319 325 327 325 321 324 333 333 334 336 339 338 340 337 334 336 337 338 338 337 336 336 338 338 339 336 337 337 338 339 338 337 338 336 335 335 333 334 337 338 340 339 340 340 341 340 340 341 342 342 340 340 340 340 340 338 336 336 334 336 336 335 334 333 329 332 336
299 302 300 300 301 300 299 301 299 297 297 301 299 292 292 299 300 300 304 305 305 308 308 308 309 311 313 317 319 320 322 325 326 325 324 326 333 335 335 336 337 337 339 336 333 333 336 336 338 335 335 334 337 338 339 336 334 338 335 334 332 331 330 330 330 331 333 332 332 336 339 339 342 342 342 342 340 342 343 343 342 341 341 340 339 337 338 337 336 336 335 337 335 336 334 331 331
297 298 303 301 300 300 300 299 298 293 291 298 302 291 289 299 299 301 302 303 304 307 307 307 308 309 311 314 324 322 321 321 322 328 326 325 330 334 335 335 337 336 336 333 330 331 334 338 337 335 336 334 337 338 338 338 338 337 336 334 334 334 331 330 335 335 335 337 338 342 341 344 341 339 339 340 339 338 343 343 343 342 341 341 340 338 337 336 335 335 336 334 337 335 335 329 331
295 302 302 302 301 299 299 298 297 296 300 302 300 298 292 292 298 302 303 303 303 306 307 307 307 308 309 312 317 322 322 324 321 323 331 331 334 334 335 336 337 337 332 330 332 330 330 335 338 337 336 334 337 338 337 338 337 337 336 334 333 333 335 334 333 334 337 340 339 340 341 343 339 338 338 338 339 338 341 342 343 341 341 340 337 338 337 337 338 336 338 338 337 336 335 332 330
298 302 302 300 300 300 299 298 297 298 296 293 297 300 293 292 298 302 303 301 302 303 306 309 309 309 310 311 314 322 322 323 325 327 329 332 333 334 335 335 337 336 331 330 333 334 334 336 336 335 334 335 336 337 336 336 337 336 334 332 332 335 333 333 334 335 336 338 341 341 339 337 338 339 338 338 338 338 339 339 339 338 339 337 334 338 338 337 337 337 338 338 337 335 335 334 334
302 303 303 302 301 300 299 298 297 297 294 289 294 299 292 291 297 298 301 300 300 303 309 313 315 315 315 315 316 322 324 323 323 327 330 332 334 334 337 339 338 337 337 336 338 336 336 334 335 333 330 332 333 334 335 336 338 337 336 336 335 334 334 334 333 333 336 339 339 336 336 336 337 337 338 338 338 337 337 338 336 336 336 334 333 333 334 338 339 339 339 336 337 335 338 336 334
304 302 300 299 299 299 299 298 297 295 288 291 296 298 295 289 295 300 298 301 307 310 312 314 316 316 316 319 317 320 319 321 327 331 332 333 334 334 336 336 337 338 338 338 338 336 336 336 335 332 331 332 334 335 335 335 336 336 336 336 334 332 334 332 333 332 336 339 335 334 335 335 336 336 338 338 337 337 337 337 336 335 336 335 332 332 333 331 333 334 334 335 338 335 334 335 336
302 299 297 297 296 298 297 297 297 288 286 294 297 297 297 288 294 302 310 312 312 312 312 313 314 315 316 318 317 323 323 325 330 329 329 331 332 333 335 336 335 336 337 338 337 337 336 335 335 333 334 334 336 336 336 335 336 335 336 335 334 332 333 333 332 333 335 334 334 333 334 334 335 336 337 336 336 337 337 336 336 336 334 334 333 334 332 331 332 332 333 333 333 338 338 337 335
300 299 297 292 289 290 286 291 285 287 286 294 297 298 295 294 298 304 309 310 312 314 313 313 314 314 317 319 322 325 327 329 329 329 329 330 331 332 333 335 335 335 335 335 335 336 337 336 336 334 333 336 338 339 337 337 338 336 335 333 333 332 332 334 333 333 335 333 333 333 333 333 333 333 334 334 335 336 335 335 335 332 333 334 333 332 332 333 332 332 332 332 333 335 336 337 335
298 296 294 290 286 285 282 287 289 290 294 297 298 299 294 298 304 309 309 312 313 315 317 316 315 316 319 319 323 325 326 326 327 327 329 329 330 331 333 334 335 336 336 335 336 335 336 335 336 335 334 335 336 337 337 337 337 337 335 333 332 331 332 334 336 333 333 333 333 332 331 331 330 332 332 331 332 334 333 333 333 333 332 332 332 333 332 331 333 329 331 331 333 338 338 337 335
297 300 296 293 292 288 282 286 284 286 289 295 299 295 290 292 299 310 312 313 315 316 317 318 318 318 320 322 323 324 327 327 327 325 325 328 330 332 332 333 334 335 336 336 336 335 335 333 334 335 334 334 333 334 336 336 336 336 335 334 333 331 331 333 333 333 333 332 332 332 332 331 331 332 331 332 333 333 333 332 333 332 332 332 332 332 332 333 332 330 331 333 334 337 338 337 336
300 300 300 295 292 297 288 291 291 290 290 290 295 292 297 298 308 311 313 313 315 316 315 317 317 319 320 321 321 322 321 323 325 325 326 329 331 332 332 333 334 334 336 335 335 334 334 334 336 336 335 335 335 333 335 335 336 335 335 334 333 333 333 334 334 332 333 334 334 332 333 333 333 333 334 333 332 333 332 331 331 331 331 331 331 331 331 331 331 331 330 332 331 331 333 332 333
298 298 293 296 302 299 292 291 296 292 289 287 295 296 299 307 307 308 311 311 312 315 315 315 317 317 319 319 320 321 322 321 323 325 326 328 330 332 332 333 333 334 334 334 334 334 334 334 335 335 335 335 334 336 334 337 336 334 333 334 333 332 333 334 333 333 334 334 334 333 331 331 332 333 332 333 332 332 332 332 330 330 331 331 331 331 330 330 330 331 331 330 330 330 330 328 329
300 295 298 302 303 302 296 288 290 289 285 286 294 291 294 293 290 305 307 308 310 312 313 315 316 318 318 319 320 320 322 323 324 327 327 328 329 330 331 332 333 333 335 334 335 336 336 335 335 335 334 334 334 336 335 333 334 332 332 332 333 334 334 333 334 334 334 332 332 332 332 330 330 332 333 332 332 331 331 329 329 329 331 330 331 330 328 329 329 328 329 329 329 330 329 329 329
300 298 305 296 289 288 296 291 284 285 284 286 291 293 295 294 295 300 304 306 308 310 313 315 313 314 318 318 320 322 324 323 324 326 327 328 329 330 330 331 332 333 335 335 335 335 335 335 335 335 335 335 335 336 338 337 336 334 332 334 336 335 333 333 333 333 332 331 331 330 331 331 332 333 332 331 331 330 330 327 329 329 330 329 330 328 328 328 328 327 328 327 328 328 326 326 328
303 304 301 303 300 296 290 291 294 293 285 285 286 293 286 297 300 301 302 307 308 309 310 311 315 316 318 317 319 322 322 323 324 325 325 326 328 329 330 330 331 333 333 334 336 335 335 335 334 334 335 335 335 335 337 335 337 338 338 337 335 333 332 332 331 330 329 330 330 330 330 331 331 331 330 330 329 329 327 327 326 327 327 329 329 327 327 327 328 327 326 325 326 325 322 323 325
296 297 296 299 299 302 300 300 294 291 287 287 286 285 293 301 305 305 306 308 310 311 309 312 314 315 317 318 318 318 320 321 321 323 323 325 328 330 330 331 331 333 332 329 330 334 334 335 334 332 332 334 332 336 336 334 336 338 338 337 333 333 333 332 331 330 331 331 331 330 330 331 329 329 330 329 330 328 326 326 325 325 325 326 328 327 328 327 326 325 325 325 322 322 321 322 325
298 297 295 297 296 293 290 288 296 295 291 286 286 284 295 303 309 307 308 309 311 312 312 312 313 315 314 315 315 314 314 316 318 319 320 322 324 325 331 330 331 328 326 325 328 330 329 329 327 329 328 329 333 335 336 335 335 337 333 333 334 334 332 332 332 331 331 331 332 331 330 328 327 329 329 329 329 327 326 325 323 322 322 323 326 327 327 326 325 325 325 322 322 321 322 321 324
Wind_Speed
8 9 7 8 7 7 7 7 7 8 8 11 10 10 4 2 2 6 5 3 8 4 4 2 3 4 8 9 11 12 11 10 9 8 5 4 2 7 9 12 17 16 16 15 14 15 16 14 15 15 17 17 17 18 18 18 19 18 19 18 18 18 17 17 16 15 16 16 15 14 13 12 11 11 11 12 12 11 10 13 14 14 13 14 14 13 13 12 12 12 12 12 13 13 13 12 12
8 7 6 6 7 7 7 8 7 7 9 10 11 9 2 5 4 8 4 4 7 7 3 5 5 7 8 10 9 8 9 3 10 8 6 6 5 8 12 13 15 16 16 15 14 14 15 16 15 16 17 17 18 18 18 18 19 18 19 19 18 18 17 18 17 16 16 16 15 14 14 12 11 11 11 11 11 10 9 12 14 14 13 15 14 13 13 12 11 11 11 11 12 12 12 12 12
5 6 7 7 8 9 6 7 8 9 10 9 10 8 8 5 1 3 4 1 6 7 4 6 7 9 10 9 10 11 3 3 8 8 6 7 8 7 12 13 15 15 17 14 14 14 13 15 14 16 17 17 18 18 18 18 19 19 20 20 18 18 18 17 17 17 16 16 15 16 15 13 12 13 12 11 10 10 10 9 13 13 13 14 13 12 12 11 10 10 10 10 11 11 12 12 11
12 7 7 6 6 6 8 6 9 10 9 7 8 7 3 3 3 4 2 5 5 5 6 7 8 9 8 8 1 2 2 6 7 7 5 6 4 11 13 14 16 15 14 14 14 14 13 15 15 16 17 18 18 18 18 18 20 19 19 18 19 19 18 17 18 18 16 16 16 16 15 13 13 13 12 11 10 11 9 8 10 13 13 13 12 11 11 10 10 9 9 9 8 9 10 11 10
9 6 8 8 8 7 6 7 9 9 10 8 5 9 5 3 3 1 4 2 6 8 6 6 8 6 3 9 5 2 5 5 7 3 7 5 10 12 14 15 14 15 14 16 15 14 14 19 14 16 17 18 18 17 18 19 19 19 18 19 19 19 18 19 19 17 17 16 16 15 15 13 13 12 12 12 12 10 10 10 9 10 11 12 11 9 9 8 9 8 8 8 8 8 9 9 9
8 7 7 8 7 7 6 8 9 11 9 8 8 8 1 2 2 4 4 7 4 4 6 6 9 2 9 3 7 5 7 3 6 5 6 6 11 15 16 15 14 14 14 13 15 14 15 17 16 16 17 17 18 18 18 19 19 19 19 19 19 18 18 17 17 17 17 17 16 16 15 14 13 13 13 14 13 12 12 11 8 8 11 11 11 10 9 9 8 8 8 8 8 8 8 7 7
6 6 6 7 8 7 7 9 9 9 7 5 8 6 7 6 4 4 6 5 7 4 3 8 4 5 7 7 8 7 7 4 5 7 4 9 13 15 15 13 14 14 14 14 14 15 18 16 16 16 16 17 18 18 18 20 19 19 20 19 20 18 18 17 16 16 17 16 16 15 15 14 15 14 13 13 14 14 12 9 8 8 11 11 11 10 10 9 8 7 7 7 6 6 5 5 4
7 8 6 8 6 6 9 10 10 8 6 7 5 5 5 4 5 4 6 4 4 7 10 7 5 9 2 4 4 4 6 3 6 9 10 12 15 15 14 14 14 15 14 13 13 14 18 16 16 16 16 16 18 18 21 20 19 18 18 19 18 18 17 17 16 15 15 16 17 16 15 15 15 15 14 14 12 12 11 9 8 10 11 11 11 10 9 8 7 7 7 5 4 4 4 4 4
7 9 4 8 9 6 8 9 10 7 7 4 3 3 1 5 5 7 6 3 7 8 6 6 7 8 5 11 7 7 5 3 8 10 11 14 15 14 11 14 15 14 14 13 13 15 17 16 15 15 15 17 19 18 17 18 17 17 18 18 17 17 16 17 17 15 14 15 16 16 16 15 15 15 13 12 12 12 12 11 9 11 11 11 10 10 9 8 7 6 5 4 4 4 3 3 4
7 7 7 6 7 9 8 9 9 6 3 7 3 4 3 4 5 4 6 7 7 5 6 1 4 13 1 7 7 2 5 7 8 10 12 14 14 13 14 15 16 16 15 13 14 15 14 18 14 14 15 16 17 17 17 17 17 17 18 17 15 16 16 15 14 14 14 15 13 13 15 15 15 15 14 13 12 12 12 11 9 11 11 11 11 10 9 8 7 5 5 5 5 5 5 5 5
7 8 7 8 8 8 8 7 10 6 7 5 3 2 2 4 3 6 6 8 5 8 1 2 9 11 8 8 7 2 4 8 10 11 12 14 14 14 14 15 14 16 14 16 15 15 16 16 17 14 15 15 16 16 16 16 16 16 15 14 14 15 15 14 15 15 16 14 14 11 12 15 15 15 14 14 13 12 12 11 10 10 12 12 11 10 9 8 7 7 7 6 6 6 7 7 7
8 7 7 8 8 8 7 9 2 4 4 3 6 2 2 4 5 5 5 9 0 7 8 8 4 6 10 10 6 5 4 8 9 10 12 14 13 15 15 14 16 15 16 15 15 14 16 16 15 16 13 14 15 15 15 15 15 15 15 14 14 14 15 16 16 18 18 17 14 12 12 16 16 14 13 13 13 11 11 11 11 11 12 12 11 10 9 8 7 8 7 6 6 7 8 8 8
9 5 8 8 8 7 9 6 5 4 4 6 7 3 2 5 4 5 7 6 8 6 10 7 5 3 8 8 8 6 6 8 8 8 12 11 12 12 14 14 17 17 16 17 16 16 18 16 15 15 14 14 14 14 15 15 15 15 14 15 15 15 16 17 17 18 18 18 15 13 16 16 16 15 14 14 14 13 12 12 12 12 12 11 10 9 7 7 8 8 7 6 6 8 8 8 7
9 7 6 9 7 10 8 6 3 2 9 10 3 2 4 5 3 7 6 7 2 6 8 6 6 6 4 10 7 5 5 8 7 10 8 10 9 9 9 12 14 13 14 16 17 18 17 17 15 15 16 15 15 14 14 14 14 14 14 15 16 15 17 17 17 17 17 17 16 17 17 16 15 15 14 13 13 12 12 13 12 12 12 11 10 8 7 8 8 8 7 7 7 8 8 8 8
10 6 6 8 9 9 7 7 7 8 5 5 9 2 5 3 4 4 5 6 3 4 4 3 7 7 2 6 3 5 9 9 8 8 6 6 3 7 4 10 3 8 8 13 16 18 17 18 17 15 14 14 15 12 12 13 14 13 14 15 15 16 16 17 17 16 17 16 18 17 16 16 15 15 14 13 12 10 13 15 14 12 11 11 9 8 8 7 8 7 7 7 6 7 8 8 8
7 5 6 8 9 9 7 8 3 6 6 2 5 6 7 4 3 8 4 6 5 1 5 3 1 4 8 9 6 8 11 9 8 8 9 4 4 7 7 6 8 10 4 4 11 13 15 16 15 14 14 14 13 12 12 15 14 14 14 14 14 14 16 16 17 17 18 18 17 15 14 14 14 13 15 13 12 11 12 12 14 13 12 11 9 7 7 7 6 6 7 8 7 5 7 8 8
6 7 7 8 11 9 4 5 6 7 10 2 3 4 5 5 6 4 3 5 9 5 3 5 5 10 12 7 8 13 12 12 11 13 11 5 5 5 0 3 4 6 3 1 10 5 9 12 15 12 14 15 14 13 12 12 13 15 13 13 13 14 14 16 16 16 14 15 15 13 12 11 11 10 12 12 14 11 10 12 14 13 13 11 9 7 6 6 4 4 6 6 8 6 6 6 6
6 8 8 9 7 9 3 3 3 7 3 7 3 3 5 7 5 4 7 9 9 5 6 8 11 9 9 11 7 10 14 14 13 12 8 7 7 4 3 2 3 5 7 4 6 11 10 3 6 6 9 12 8 6 8 8 11 13 13 12 12 13 14 15 14 12 13 12 13 12 9 7 7 9 9 12 10 12 13 13 13 13 12 11 10 8 7 5 3 4 4 5 6 7 8 5 5
9 8 9 9 9 7 4 6 4 5 7 4 4 3 4 5 5 5 9 3 5 6 9 9 8 7 11 10 10 11 11 12 12 11 13 12 7 8 6 3 5 3 3 4 5 7 7 7 6 3 7 10 6 3 2 7 11 10 12 11 10 13 13 13 11 12 11 11 11 9 7 7 7 8 8 9 10 12 13 14 14 13 11 10 9 7 7 6 4 3 2 3 4 7 7 3 5
10 9 9 10 8 5 6 1 6 5 5 6 5 5 5 5 6 5 9 6 8 11 10 12 4 7 7 9 11 11 13 11 11 11 12 12 9 10 6 6 6 4 4 3 7 6 6 4 7 7 10 6 4 0 5 6 8 9 9 9 10 10 12 11 10 11 10 10 9 6 5 4 5 4 9 12 12 11 12 13 13 13 12 9 9 7 6 5 5 4 3 2 4 6 5 4 5
7 11 10 4 10 7 4 3 1 4 6 6 7 6 8 4 5 7 6 8 9 2 7 6 8 6 8 7 9 10 10 11 11 9 11 11 10 8 8 7 8 7 7 7 8 7 6 3 5 7 7 7 7 5 6 4 3 8 9 9 10 10 10 9 8 7 9 9 6 3 6 6 4 6 7 7 9 10 10 10 11 9 8 8 9 7 7 6 6 6 4 5 5 7 6 4 3
6 11 12 11 4 7 1 3 5 5 5 8 6 8 6 6 8 8 7 9 6 9 6 7 12 12 11 11 9 9 11 11 12 11 11 10 9 9 8 9 8 7 6 8 11 12 12 8 7 5 6 6 7 5 6 8 9 8 9 9 8 8 9 8 7 4 6 9 7 5 3 6 7 6 7 8 7 7 9 9 9 8 9 8 9 7 6 7 6 6 7 7 8 4 2 4 5
10 9 10 9 6 10 5 3 3 4 8 8 7 6 7 7 7 7 6 8 7 5 4 3 9 10 8 8 11 11 12 11 10 11 10 10 9 9 10 8 8 8 8 8 8 9 18 18 13 9 9 8 6 2 3 4 2 5 8 8 8 8 7 6 6 5 5 5 8 7 7 6 7 8 9 9 8 7 8 7 6 7 7 7 9 6 7 8 8 8 7 6 1 2 5 5 5
11 9 5 8 7 10 6 8 7 7 7 8 7 8 9 6 11 2 6 6 5 3 2 6 9 11 11 13 13 12 10 10 11 9 9 9 8 10 8 7 7 6 7 7 6 3 6 19 19 13 10 7 5 2 1 5 5 5 6 8 7 7 6 5 4 4 3 6 8 11 9 9 10 9 8 8 8 8 7 7 6 6 5 6 6 5 6 7 6 2 3 2 5 7 8 7 6
11 12 8 3 5 7 8 8 8 8 7 8 9 9 9 8 10 6 9 2 2 1 3 7 8 11 10 11 12 12 11 10 10 9 9 6 8 6 7 4 7 8 9 12 10 8 3 8 18 13 6 6 5 2 4 4 5 4 6 6 7 6 4 4 5 2 4 6 6 9 8 8 8 8 9 8 8 7 6 6 6 6 6 7 5 6 7 5 4 4 4 6 4 5 4 4 6
13 11 9 9 8 6 7 9 9 8 6 6 9 10 8 10 8 10 9 4 1 1 4 7 10 8 9 8 11 11 10 11 10 10 9 7 8 7 7 6 8 10 13 14 13 16 13 11 11 12 9 6 6 6 3 5 7 6 4 5 6 6 5 3 5 4 7 5 7 6 7 2 5 7 7 7 6 7 6 6 6 5 5 5 4 4 3 5 5 4 5 5 6 8 6 6 5
2 7 11 11 10 9 7 9 8 8 8 7 9 9 9 8 6 9 6 3 0 5 6 7 9 8 8 11 11 10 12 11 11 8 7 7 9 7 7 6 7 9 11 11 5 4 12 17 16 12 11 9 8 8 8 7 3 4 7 3 7 5 6 7 7 8 4 2 4 6 4 2 2 5 5 5 6 7 6 6 5 5 4 4 4 5 4 4 4 3 4 5 5 5 5 4 5
6 5 6 9 10 10 9 9 9 8 10 10 11 12 10 9 8 10 8 3 4 6 7 7 11 9 9 11 9 8 8 9 9 8 9 8 8 8 8 6 8 9 7 5 2 4 8 11 16 16 13 11 10 9 5 3 4 3 5 6 5 4 4 5 6 5 2 5 6 5 3 1 2 1 3 6 7 7 7 6 5 6 5 4 4 5 4 4 4 6 5 2 2 2 2 3 3
7 7 10 11 13 12 13 12 10 9 8 6 4 9 11 11 12 16 9 6 7 5 7 9 9 9 9 9 7 6 7 10 8 7 6 6 7 7 8 6 8 7 6 5 5 8 12 14 14 14 13 12 10 13 11 9 7 6 7 5 5 6 6 5 6 5 8 4 4 3 3 1 1 3 4 6 7 7 7 5 6 5 4 4 4 4 5 4 5 4 4 3 3 3 3 1 3
7 8 9 10 10 12 14 11 8 7 7 0 2 9 9 15 17 16 12 10 8 9 8 9 9 8 10 7 9 9 9 10 9 7 7 6 7 7 8 6 8 8 8 7 5 6 6 7 10 11 12 11 10 10 11 9 6 6 6 6 6 6 5 5 3 4 5 6 4 4 3 2 2 3 4 6 6 7 7 7 6 5 4 4 3 3 4 5 5 5 4 5 3 4 4 2 3
9 9 9 9 8 10 12 8 7 10 7 7 7 10 9 12 20 12 10 8 10 9 8 10 8 9 8 11 9 9 11 8 7 5 7 9 9 8 8 9 9 8 10 9 8 9 6 9 9 9 11 12 11 10 10 10 9 7 7 7 6 6 6 6 6 6 3 7 4 3 5 4 5 6 8 6 7 7 6 6 6 5 6 5 4 3 4 4 3 5 6 6 5 4 3 4 3
8 8 9 9 10 6 12 9 7 10 11 9 9 9 11 8 15 13 10 10 9 10 10 9 9 8 8 8 11 12 11 8 6 4 9 10 9 7 8 9 9 9 10 11 11 10 9 9 10 11 12 12 10 10 10 9 7 6 5 7 5 5 4 3 4 4 5 4 4 4 6 3 1 3 6 6 4 5 5 5 1 5 7 5 6 5 3 4 3 3 2 2 4 4 4 3 2
9 9 7 10 9 6 7 12 8 9 2 8 9 8 9 3 12 11 8 9 10 9 11 10 9 9 8 8 9 12 9 9 6 5 9 9 7 7 8 7 8 9 11 12 12 12 12 11 12 14 14 13 11 10 9 9 8 7 6 5 5 4 4 4 3 1 4 5 6 4 4 5 6 3 8 1 5 4 2 2 5 7 7 6 5 5 4 3 3 2 2 2 3 5 6 3 3
9 9 9 7 8 6 5 12 7 6 7 8 11 11 11 4 15 9 6 10 11 12 14 12 9 8 10 9 10 8 11 9 7 7 9 9 7 8 9 8 9 10 11 12 13 13 12 11 11 10 10 10 9 9 9 9 8 8 7 5 5 5 4 3 3 4 2 4 5 1 3 3 4 5 5 1 2 4 2 2 2 3 5 6 5 4 3 3 4 3 3 3 3 4 4 2 2
9 8 9 8 8 6 7 2 11 6 9 9 6 11 10 14 4 8 8 9 11 13 11 11 12 10 9 10 8 7 6 7 10 8 9 9 8 8 8 9 9 11 9 11 11 11 11 11 10 9 9 10 9 8 10 9 8 6 5 6 5 5 4 3 3 3 4 5 6 6 5 4 2 5 4 5 4 2 3 3 5 6 6 5 5 5 4 4 4 3 3 2 1 2 3 2 2
8 11 10 10 8 11 12 8 11 6 6 8 10 9 11 13 14 10 10 8 10 11 9 3 11 10 9 8 6 6 7 12 8 9 11 9 8 8 9 8 8 8 10 10 12 11 11 12 11 10 10 9 9 9 9 8 7 6 6 5 5 6 6 5 3 4 3 4 5 5 6 4 7 6 4 4 4 3 2 1 1 7 5 5 5 5 4 5 5 4 4 3 2 2 2 3 3
6 7 4 6 7 9 4 3 4 2 6 9 10 9 12 12 11 14 9 8 8 11 12 14 14 10 13 8 10 9 10 7 10 11 11 11 10 10 9 9 9 9 10 11 11 11 10 10 10 12 11 11 10 10 8 8 8 7 6 6 7 6 5 4 3 4 4 3 4 6 5 5 6 6 4 3 3 1 2 3 7 5 5 5 4 4 2 5 5 4 4 3 3 3 3 3 2
9 9 8 9 9 9 9 8 6 3 5 7 8 12 12 14 12 13 8 8 13 14 14 13 14 11 6 6 7 8 9 6 11 10 10 11 11 12 10 9 10 11 10 10 10 10 11 9 9 10 11 10 9 9 8 7 8 7 7 7 6 6 6 5 6 5 6 5 7 6 7 6 6 6 5 4 3 1 3 6 4 4 4 5 4 3 4 4 5 4 4 4 3 3 3 3 4
8 9 9 10 9 9 5 4 4 5 5 7 10 11 11 13 13 13 15 11 10 13 15 14 15 15 11 10 12 10 8 11 7 8 10 11 12 11 9 8 8 9 10 9 9 9 9 11 8 9 9 9 8 7 8 6 6 5 6 5 7 5 5 5 4 6 6 0 7 8 9 8 7 7 8 6 6 8 8 6 7 5 4 4 5 5 5 5 3 5 5 4 4 3 2 3 4
8 9 10 9 10 11 8 10 7 8 7 7 9 10 8 10 11 13 15 11 13 14 16 16 15 12 17 15 12 13 11 10 10 10 7 9 11 11 9 9 8 7 8 8 6 7 6 7 10 9 10 8 5 5 5 7 8 5 3 4 5 2 2 2 2 4 8 8 6 7 6 6 7 6 8 10 11 8 6 6 4 4 4 5 4 5 3 7 5 4 5 3 3 4 4 4 3
10 12 10 10 12 11 9 3 6 3 8 9 10 10 10 10 12 12 14 12 12 12 14 16 15 14 14 15 10 13 13 11 10 8 1 8 10 12 10 10 9 8 7 9 6 5 4 8 10 9 7 6 5 5 8 8 6 5 6 4 2 1 1 0 3 3 7 6 3 5 8 8 11 10 8 7 4 6 5 4 5 5 5 6 5 5 5 3 6 5 4 5 5 1 2 4 4
9 12 13 13 13 15 1 7 9 8 10 12 12 10 11 12 17 17 13 14 15 12 13 14 14 15 14 14 17 14 13 11 10 9 10 13 12 10 10 11 10 10 8 7 8 5 7 7 7 6 7 5 7 9 9 9 9 8 6 6 6 4 4 5 5 5 5 7 8 10 10 9 7 5 5 4 6 5 5 5 5 6 6 5 4 4 4 3 3 4 6 5 4 5 2 3 4
10 9 15 16 12 9 10 12 9 9 10 8 16 11 7 9 14 15 15 16 14 11 14 14 14 14 14 13 16 11 11 8 9 10 13 15 15 12 11 11 10 10 9 8 1 2 5 8 10 11 9 6 8 8 9 5 6 6 6 6 5 4 4 3 2 2 8 9 5 5 7 6 7 7 6 7 6 6 6 5 5 5 6 5 5 5 5 5 4 3 5 4 2 3 3 2 3
10 7 3 4 8 10 11 12 11 9 12 2 2 7 10 11 8 4 8 11 11 14 15 15 13 14 15 14 12 18 15 15 13 11 12 14 12 11 11 10 9 9 12 11 11 10 11 10 9 11 9 8 8 8 9 8 8 6 6 4 2 3 4 4 5 6 5 3 7 7 6 6 6 6 6 6 6 6 6 6 6 5 5 6 6 5 5 5 3 4 1 3 4 2 2 1 3
8 4 3 6 9 10 11 10 10 10 11 11 11 13 12 11 10 9 11 13 13 14 14 13 12 12 12 13 12 15 12 11 8 9 12 12 10 10 9 9 8 13 12 10 8 14 11 8 11 10 10 10 9 12 11 11 10 9 8 8 8 6 5 5 4 4 6 5 7 6 6 6 6 6 6 5 6 6 6 5 5 5 4 4 3 3 4 5 4 5 4 2 4 1 2 1 1
12 6 5 6 6 9 10 10 11 10 10 12 13 9 10 10 9 10 10 10 10 9 6 4 4 6 9 8 9 15 8 8 11 13 13 11 10 11 11 11 11 10 11 11 11 11 12 11 12 12 13 9 12 15 15 14 13 11 10 9 10 8 7 5 6 7 8 6 6 7 6 6 6 6 6 5 5 6 5 5 5 5 4 4 3 5 4 4 4 4 4 3 4 3 3 3 2
2 5 5 9 11 10 9 10 10 10 11 13 14 15 12 10 7 4 5 4 2 5 5 5 3 6 7 8 11 12 12 11 10 11 10 10 9 10 10 11 11 11 11 12 11 12 12 13 14 15 12 10 9 13 14 13 11 10 10 9 8 8 8 8 7 7 6 6 7 7 6 5 6 6 5 6 5 6 5 5 5 5 5 3 3 4 4 4 4 3 4 5 5 6 4 4 4
10 8 8 8 10 9 8 8 9 9 10 11 13 16 15 12 4 3 6 5 5 2 2 2 2 4 6 7 10 9 9 12 12 10 11 12 11 10 11 11 12 12 11 12 11 11 11 12 14 16 17 13 10 11 10 9 8 8 8 8 7 5 4 6 7 9 9 9 8 7 6 6 6 6 5 5 6 6 4 5 5 4 4 3 4 3 3 4 4 4 4 3 3 4 4 4 3
10 9 10 11 7 5 8 8 9 10 9 10 13 15 13 13 1 6 5 5 2 3 1 2 4 6 5 3 3 6 8 10 11 10 10 10 10 11 11 12 12 11 11 12 12 12 12 12 14 16 16 15 14 12 11 11 9 9 8 6 5 4 4 7 7 7 8 7 7 7 7 6 7 6 6 7 6 6 4 5 4 3 4 3 2 3 1 2 2 2 3 3 3 4 4 4 4
12 12 10 11 9 9 8 8 6 9 11 12 9 2 9 2 6 4 5 4 3 2 1 1 3 3 4 6 6 5 7 10 10 10 9 9 9 10 11 12 12 12 13 12 12 12 11 11 14 15 15 15 12 12 12 11 11 10 9 7 6 3 6 6 7 7 7 7 6 6 6 5 5 5 6 5 6 5 4 4 4 3 3 3 3 2 1 2 2 2 3 2 4 3 3 4 4
13 11 12 11 10 8 8 7 8 8 7 9 10 8 5 14 3 5 7 5 3 1 3 2 1 0 4 5 7 6 6 8 8 9 9 8 10 12 11 11 10 10 12 11 11 11 11 11 12 14 14 14 14 12 10 12 10 9 7 7 5 5 6 7 7 7 7 7 6 6 5 5 5 5 6 6 6 5 6 5 4 3 3 3 2 2 2 2 2 2 4 3 1 2 3 2 2
11 11 10 12 10 6 10 1 6 6 5 8 8 7 2 2 9 5 4 4 3 3 4 4 4 4 6 6 8 10 10 10 10 8 7 9 9 11 10 10 11 10 13 11 10 10 9 10 12 13 13 13 14 17 14 11 10 8 9 8 8 7 7 7 6 7 5 6 7 7 6 6 6 6 6 7 7 6 6 5 4 4 3 3 3 4 4 4 3 2 5 4 4 3 3 3 3
8 12 13 11 8 9 7 6 10 4 6 7 2 8 6 10 7 7 6 6 5 4 5 5 6 6 5 5 6 5 4 2 4 6 7 9 9 10 10 12 10 10 11 11 10 10 10 10 12 13 14 14 14 14 13 11 12 10 8 9 9 9 12 10 8 8 8 7 7 6 6 6 7 6 6 6 6 6 5 5 4 5 4 4 4 4 3 5 4 4 5 5 5 5 4 4 3
5 9 9 10 10 10 7 6 3 6 9 8 10 12 8 9 5 8 6 5 5 6 5 5 5 7 5 5 6 6 6 4 5 6 8 7 8 7 8 10 10 11 11 11 12 11 10 10 11 14 14 15 13 13 14 14 13 14 14 12 13 14 12 10 9 10 9 9 7 7 7 7 7 6 6 6 6 7 5 4 5 5 5 4 4 4 5 5 4 4 5 5 5 4 3 3 3
12 7 1 9 7 9 8 4 9 7 7 6 11 12 7 5 4 2 4 5 5 4 5 3 5 3 6 5 3 5 8 7 5 7 8 10 9 10 10 10 10 10 12 12 12 10 10 9 10 11 13 13 14 11 10 11 12 12 12 13 14 12 11 9 10 9 9 9 9 8 7 7 7 6 6 7 7 7 6 5 5 6 5 5 4 4 5 5 5 5 4 4 4 4 3 3 2
18 12 8 8 9 7 7 8 8 7 8 8 7 13 1 3 5 4 3 4 3 6 7 5 5 6 5 7 7 4 4 5 6 6 7 8 9 10 10 9 10 10 10 11 10 8 10 11 10 11 9 10 12 11 10 10 9 8 9 11 11 11 11 11 10 9 9 10 9 9 8 7 7 6 6 7 7 7 7 6 6 6 6 5 5 5 5 5 5 5 5 5 4 3 4 4 4
14 12 11 9 8 5 6 3 8 8 7 7 6 7 2 3 3 6 6 5 5 6 7 7 7 6 9 9 9 6 7 7 6 5 5 1 2 4 7 6 5 7 4 7 1 6 8 6 3 2 5 6 9 9 8 7 8 8 10 11 12 10 10 10 10 10 9 9 8 8 7 6 6 6 7 8 7 8 7 6 6 6 6 6 6 6 5 5 5 5 4 4 5 4 5 4 3
12 12 12 11 11 10 11 7 8 11 7 4 7 2 2 4 2 1 4 2 4 5 7 6 6 7 10 9 11 12 9 11 12 10 6 6 4 2 1 3 3 6 6 7 3 4 2 5 3 1 4 5 4 7 5 3 3 6 10 10 10 9 10 8 10 10 9 9 7 7 7 6 5 6 8 8 8 7 6 6 6 6 6 6 7 6 6 5 5 4 3 3 4 5 4 5 4
Wind_Direction
250 223 222 231 243 251 234 205 240 190 241 243 255 245 249 36 301 283 268 147 242 116 28 350 269 285 285 314 319 324 320 301 351 309 41 128 230 90 118 126 127 130 136 142 134 141 141 135 139 140 140 141 141 138 138 137 134 132 132 132 131 131 133 135 135 134 133 133 133 133 134 132 127 124 120 124 127 129 130 130 130 131 134 123 122 123 122 121 115 106 98 92 92 92 92 95 97
219 214 233 230 237 240 209 216 258 243 206 251 247 258 134 100 82 246 268 176 10 73 334 311 290 285 266 272 276 296 253 29 50 78 99 100 147 96 113 132 141 136 139 143 142 141 144 142 138 140 139 140 140 139 136 134 134 133 133 133 132 131 132 133 134 135 136 136 135 137 138 133 128 123 117 119 127 125 124 131 137 133 136 125 128 132 129 122 116 111 107 101 91 88 91 93 97
229 216 205 220 233 237 289 204 241 242 241 247 248 212 70 254 308 106 15 316 2 336 288 275 293 252 239 223 242 235 78 9 67 87 93 131 133 130 131 137 130 135 140 147 146 143 146 143 139 138 137 139 140 139 134 133 133 134 135 135 132 132 132 134 136 139 139 137 136 140 141 137 131 130 127 126 123 123 130 154 140 139 135 131 132 133 127 123 119 115 109 106 97 84 86 89 96
279 227 229 200 217 204 237 213 245 270 258 259 285 63 292 245 64 37 37 305 283 284 265 268 265 60 297 194 322 307 55 82 34 76 122 184 131 145 139 136 136 129 147 152 149 145 145 139 138 138 139 139 140 137 134 133 133 135 135 133 134 134 135 138 141 141 140 139 141 142 142 139 138 137 137 134 125 130 146 139 132 144 136 133 138 138 131 129 127 122 117 112 101 91 84 86 87
252 212 254 242 266 216 230 230 243 242 246 246 267 99 103 347 47 57 303 334 256 239 246 264 257 199 300 308 31 251 23 90 69 320 99 91 116 136 143 142 141 136 148 160 155 138 137 142 140 139 141 142 139 134 133 133 133 133 133 134 135 136 138 141 141 141 142 144 143 144 144 144 145 147 146 139 134 140 133 133 146 139 133 136 140 136 132 134 129 124 119 112 104 96 86 84 83
236 232 207 257 244 350 281 244 228 239 265 279 282 75 37 72 346 9 304 251 279 269 265 270 269 116 205 164 32 35 1 282 80 78 129 122 130 141 142 151 144 139 152 156 146 137 151 142 145 144 143 143 139 134 133 134 134 134 135 136 137 138 141 141 141 143 144 146 145 146 147 150 153 149 140 138 143 142 135 140 145 137 134 127 128 131 138 136 126 122 119 118 106 97 89 76 80
206 216 194 225 250 243 249 244 246 240 220 255 272 337 36 14 355 302 277 310 210 268 182 246 234 233 252 123 94 59 24 86 234 102 145 135 133 137 144 147 146 142 152 152 155 138 150 146 146 146 145 142 139 135 134 136 137 137 139 140 142 141 142 143 142 144 148 149 149 149 150 148 143 130 130 135 143 141 141 139 138 123 119 124 130 141 139 129 126 118 115 97 93 86 80 83 78
259 248 173 225 224 200 225 249 257 267 97 267 28 305 20 356 297 303 289 293 119 255 155 248 252 277 31 177 130 67 82 330 58 122 130 150 146 148 142 147 150 147 146 154 154 138 137 149 145 145 144 142 139 136 140 140 138 139 141 143 144 143 144 144 144 146 149 151 151 151 152 145 134 127 133 140 129 134 132 137 135 125 124 125 138 142 130 125 117 110 103 90 83 87 85 93 104
225 239 242 244 251 211 244 242 252 227 283 139 142 48 244 305 315 286 274 248 321 237 250 224 238 240 160 198 99 105 82 90 94 122 142 145 148 152 147 150 152 150 148 155 148 130 147 147 143 143 142 142 145 141 138 138 141 143 145 145 144 145 147 148 149 149 151 149 152 152 150 147 135 128 128 125 125 123 126 131 136 131 128 133 142 128 125 124 117 107 99 88 77 77 83 96 110
219 234 190 237 258 242 233 238 235 238 192 58 311 48 7 11 301 285 279 261 243 4 261 235 254 246 130 115 118 101 80 98 129 136 144 147 150 154 151 153 153 151 159 146 129 144 153 147 139 141 143 144 144 144 143 141 144 147 147 145 143 146 149 150 149 144 134 143 147 143 148 149 141 133 131 128 126 127 128 132 135 137 133 136 132 129 126 119 107 107 87 76 77 75 86 102 114
222 196 276 256 234 250 239 242 220 158 222 115 157 178 10 287 303 293 274 308 282 260 271 213 234 243 235 82 61 68 106 126 138 153 153 151 155 157 153 153 153 152 154 145 151 147 149 151 142 142 145 146 146 145 144 144 145 143 141 138 138 144 146 141 137 132 139 139 144 147 152 144 140 136 132 131 130 133 135 134 137 139 136 134 134 130 128 121 112 92 77 71 76 83 93 101 112
238 207 204 239 240 237 227 252 134 98 119 207 154 30 57 314 280 300 313 271 300 210 235 168 234 215 221 130 132 110 158 131 153 156 159 157 160 161 160 159 152 157 148 151 149 143 148 150 153 146 143 144 145 144 143 142 138 134 132 135 137 135 137 137 140 142 141 144 154 154 150 148 143 137 133 134 134 137 141 145 143 140 136 135 133 132 126 121 106 91 85 83 85 97 105 108 113
251 240 221 246 251 238 259 316 251 304 340 181 100 87 269 285 341 311 296 292 251 240 223 201 334 259 257 112 101 123 158 149 155 162 165 166 164 164 166 168 158 153 154 152 149 144 149 152 153 154 147 142 142 142 140 137 133 131 133 134 136 138 141 145 145 138 144 149 156 153 155 151 141 135 138 139 141 142 145 141 142 140 138 132 132 130 122 118 103 92 92 92 95 110 118 115 113
239 256 255 246 254 270 282 253 310 246 222 97 99 57 351 289 11 309 303 285 294 258 27 348 289 255 125 126 112 123 146 161 156 166 160 182 154 166 161 162 163 152 156 154 154 149 152 155 152 155 153 156 149 143 136 134 134 133 130 135 138 138 142 140 140 142 145 148 155 158 153 146 137 138 140 142 143 143 142 140 139 142 135 131 135 131 119 111 96 93 91 91 103 113 119 124 121
244 251 271 271 270 266 228 249 234 223 103 136 88 316 298 91 273 314 318 292 348 303 350 295 316 247 137 233 113 140 154 172 158 164 168 61 296 63 44 23 346 153 166 153 152 155 157 155 154 153 156 154 150 151 147 136 134 130 129 132 134 138 139 140 140 141 144 150 152 149 149 145 140 141 141 142 141 138 144 141 142 138 134 131 132 127 117 105 100 100 97 89 98 113 122 126 131
257 274 247 252 246 251 202 220 251 292 106 150 105 77 262 296 74 286 34 281 334 21 273 195 171 338 35 79 168 153 143 152 154 108 61 80 6 61 4 21 11 342 355 3 161 164 160 153 152 154 157 153 149 149 147 146 132 128 128 130 133 136 138 139 142 147 148 147 146 145 147 149 148 147 148 147 141 140 146 149 139 138 137 130 127 123 120 108 112 111 104 110 103 111 126 133 136
236 260 249 234 251 236 132 231 139 235 101 77 77 49 317 300 57 282 286 234 261 151 258 34 78 46 62 76 103 130 140 152 163 138 168 132 81 75 215 103 96 69 346 327 312 146 158 153 151 153 151 147 148 147 146 144 134 130 129 127 132 136 139 143 145 144 140 142 145 145 152 159 157 152 160 158 148 151 141 133 147 140 133 131 127 129 122 118 117 107 108 112 123 132 131 137 141
218 225 238 238 254 232 55 189 78 43 280 56 335 33 330 277 18 348 270 216 217 174 220 106 57 80 95 110 131 144 155 166 166 154 139 131 139 119 151 152 133 87 100 40 356 4 353 34 118 137 136 145 124 132 141 140 143 150 146 144 146 145 146 150 152 152 149 150 147 151 160 154 158 157 162 153 155 144 139 138 143 144 137 132 134 134 123 121 123 108 121 123 130 140 161 163 166
220 225 234 247 217 59 321 34 9 314 21 320 328 311 326 316 295 26 281 340 278 219 167 93 92 108 117 127 147 159 164 167 170 167 161 157 159 152 149 143 78 68 87 124 105 42 38 345 21 55 86 65 100 139 125 147 155 155 151 154 154 158 157 159 158 153 160 152 156 162 148 147 165 158 154 161 154 144 138 137 141 142 140 133 132 129 130 128 127 144 134 153 157 180 197 175 191
226 249 228 231 286 66 15 272 23 300 346 303 334 316 305 305 283 358 278 309 240 241 132 93 142 140 117 143 157 169 170 169 173 169 165 160 157 152 160 123 128 119 119 105 101 67 63 51 95 65 85 86 115 69 151 156 161 158 161 158 159 161 161 162 163 157 156 150 157 152 150 143 141 169 140 141 140 142 140 135 140 139 142 142 137 143 139 149 145 160 177 189 210 205 208 183 191
190 238 245 240 41 310 102 352 43 335 298 318 292 335 264 337 320 277 309 263 233 267 114 156 167 120 156 164 157 167 166 172 170 173 174 162 156 162 154 136 155 154 148 134 110 109 100 38 77 74 88 139 175 201 167 132 185 172 161 159 164 163 164 160 152 159 146 147 148 168 152 148 192 165 147 153 161 158 152 152 149 159 162 163 177 165 176 160 192 174 176 210 211 208 214 197 199
256 234 247 287 356 260 116 286 33 291 313 276 295 268 315 343 256 269 276 283 335 25 46 155 145 167 175 166 167 175 172 174 180 184 180 171 168 163 151 145 153 161 147 157 159 145 138 137 118 122 147 194 187 183 163 169 181 183 160 161 160 167 162 157 137 167 159 148 154 167 153 162 181 144 161 163 164 168 170 161 176 168 173 167 186 170 186 164 190 189 196 201 217 214 264 247 224
243 231 254 267 275 279 47 255 276 315 286 291 288 295 324 280 295 263 275 277 358 11 35 155 157 142 139 157 165 181 175 173 177 176 178 185 171 176 173 161 163 162 162 174 180 161 151 139 145 158 158 182 197 199 181 157 197 191 159 152 165 166 156 149 147 145 171 148 161 161 184 181 165 176 166 173 172 174 173 177 174 169 171 156 191 173 174 177 199 198 191 203 130 221 228 228 221
243 260 222 231 239 246 273 288 284 268 270 276 288 305 268 292 262 345 278 291 22 7 290 117 123 127 159 170 176 167 168 171 176 176 182 191 186 174 163 164 169 156 152 187 165 172 159 142 142 153 168 170 178 160 56 33 261 208 157 159 170 135 139 152 131 150 153 185 165 187 164 179 170 162 170 168 168 170 174 162 166 155 155 156 178 164 175 188 197 169 144 145 207 218 218 215 209
229 241 255 257 256 257 263 265 267 268 273 269 267 269 267 265 272 308 262 290 18 125 197 130 133 138 157 158 154 158 158 169 176 181 189 191 186 160 187 181 164 166 170 171 156 143 138 137 130 140 154 149 135 157 117 207 250 251 147 177 148 126 134 149 140 147 211 189 191 167 174 173 164 162 167 165 172 165 158 152 154 160 159 161 171 152 193 163 158 184 186 204 201 227 232 216 215
224 248 252 254 247 260 263 258 252 257 269 262 263 254 258 254 264 259 252 88 178 213 159 137 116 125 139 162 151 161 167 170 177 193 181 173 154 178 200 187 167 173 174 166 161 156 151 138 122 133 154 152 108 134 180 225 206 201 145 219 126 147 163 148 138 192 217 196 176 170 156 176 167 163 159 166 157 150 152 157 157 147 152 134 166 146 138 159 170 173 187 191 196 210 210 205 225
15 237 240 250 251 246 240 257 262 269 264 274 265 266 257 253 236 230 167 88 83 188 136 119 104 144 180 155 160 169 171 177 190 183 175 163 153 188 186 175 168 164 157 167 192 262 164 143 137 146 154 136 142 159 192 194 259 184 181 158 142 155 159 175 187 195 171 70 290 136 119 132 161 156 160 161 148 155 154 155 148 142 149 144 144 133 148 158 168 164 200 199 195 210 208 213 229
226 267 278 255 257 258 254 246 258 254 244 234 247 252 251 248 245 256 131 167 199 179 150 140 151 175 169 150 161 166 168 179 176 184 181 164 166 177 175 172 162 161 177 193 223 118 147 120 133 141 150 148 154 163 153 144 152 169 160 147 150 140 159 176 178 182 164 174 183 115 101 38 340 153 167 159 159 158 154 157 149 152 139 142 138 136 149 175 183 182 202 243 280 273 234 237 252
253 252 252 242 237 243 227 234 232 223 250 232 265 274 245 230 228 233 156 169 211 184 161 150 155 164 174 148 141 159 183 165 165 176 159 169 170 165 173 174 166 172 176 190 150 161 156 143 144 146 146 148 144 154 165 155 157 166 156 157 156 168 167 175 191 186 180 160 84 99 117 44 345 284 183 173 168 159 151 149 145 135 131 127 135 147 159 182 186 154 184 201 201 218 245 222 238
250 243 256 258 237 235 219 211 224 246 255 137 242 246 226 213 219 224 134 182 201 200 164 168 153 189 144 160 164 182 191 171 162 165 163 164 141 148 167 151 159 167 165 163 120 169 162 129 128 133 138 144 157 162 160 155 154 150 160 157 162 169 163 183 205 229 128 136 169 160 157 183 175 256 238 181 181 154 154 154 147 139 128 127 124 156 174 203 163 190 189 192 187 214 197 201 219
235 226 228 252 247 238 166 183 179 237 145 185 222 258 262 215 207 166 159 175 196 204 187 150 183 166 179 161 174 160 176 177 155 162 148 122 133 142 140 149 154 166 164 159 142 146 127 114 116 123 144 146 157 159 157 155 152 146 151 153 162 174 179 198 183 210 126 107 170 160 185 194 210 170 236 217 177 154 141 149 146 146 147 161 152 162 210 182 165 179 180 195 176 208 203 182 233
227 234 209 220 244 120 147 167 174 246 133 219 213 248 256 250 143 147 174 182 194 214 195 177 160 183 184 159 164 173 181 166 146 179 130 136 149 132 144 148 149 152 153 142 127 115 113 130 131 130 141 150 154 155 157 151 149 148 142 163 163 182 192 187 190 197 119 192 155 178 198 187 227 222 271 242 166 152 140 119 126 164 163 171 155 184 204 173 156 208 160 177 177 196 191 180 172
209 237 244 218 208 181 170 173 200 243 27 166 228 256 214 251 132 151 184 181 208 202 224 182 176 180 184 170 190 163 183 151 161 160 146 151 145 137 138 142 141 136 141 144 139 135 147 145 143 143 149 156 159 156 151 154 156 155 163 166 170 189 208 187 213 141 169 196 136 162 185 161 246 195 240 184 2 55 65 215 196 165 173 159 146 162 198 158 152 158 154 211 219 202 191 152 137
202 210 247 259 197 204 230 123 203 178 224 217 203 247 265 235 131 144 170 198 197 229 208 184 194 187 187 201 159 216 180 158 175 171 170 159 136 144 144 142 132 127 135 147 152 144 141 142 145 145 142 148 157 161 159 159 159 165 171 174 189 199 200 205 188 160 181 134 132 115 216 203 216 232 169 293 172 148 214 226 166 224 180 144 151 169 176 171 151 167 169 180 213 346 352 108 135
220 201 221 231 233 272 284 185 138 214 173 259 221 230 245 261 226 152 196 181 212 217 224 193 201 196 191 208 158 192 168 202 171 173 183 146 140 149 142 138 139 133 140 145 148 150 144 142 138 139 145 151 158 159 164 164 165 162 173 193 205 204 196 197 172 157 152 151 133 177 213 188 244 277 144 201 170 182 199 210 162 215 162 150 149 164 160 161 142 162 168 147 340 265 142 130 148
271 209 208 234 234 197 222 213 138 228 220 224 231 239 230 239 254 250 152 201 216 223 215 248 224 194 198 194 181 199 210 201 182 178 171 156 155 153 147 140 133 135 142 146 149 149 151 149 147 153 149 151 162 166 172 172 170 175 187 201 212 215 202 185 172 160 149 162 149 167 182 195 185 212 181 186 170 209 224 27 226 203 150 158 150 163 169 150 155 153 145 143 141 114 94 129 141
315 316 302 269 262 275 98 317 64 153 264 250 263 249 259 255 237 239 178 181 218 230 216 188 222 193 217 192 191 188 220 179 203 173 181 159 168 161 158 148 147 141 144 150 152 152 156 153 148 157 155 158 170 173 173 179 175 183 188 199 208 203 193 177 173 146 147 167 163 179 186 179 195 184 194 190 235 264 106 180 222 192 166 140 162 149 155 127 144 155 133 150 163 165 151 144 137
265 264 256 251 242 252 232 197 183 223 257 259 234 250 245 246 245 256 185 186 219 222 223 221 221 204 226 168 166 193 236 238 179 158 160 170 168 168 157 156 159 154 152 153 153 146 143 140 153 157 163 166 172 175 173 174 185 182 185 192 201 200 181 175 184 157 169 188 187 164 180 191 195 184 188 184 211 229 159 233 157 201 169 134 91 115 127 131 151 158 155 158 180 166 153 171 142
244 257 254 252 250 256 238 102 191 236 221 253 256 255 248 239 242 242 252 201 227 223 224 226 224 200 194 199 201 190 207 223 216 181 164 182 170 157 162 153 156 160 152 154 138 138 141 155 164 162 164 166 175 178 178 166 176 208 194 182 196 198 191 188 174 149 114 352 175 182 179 189 191 196 188 177 176 208 210 173 190 150 161 114 133 165 147 134 186 162 172 178 174 172 161 152 184
251 234 238 249 249 241 234 196 211 214 235 263 263 261 254 250 240 239 247 207 215 224 220 227 233 202 183 213 197 186 201 213 208 200 188 192 177 170 162 157 156 161 161 133 118 146 165 164 166 165 159 167 188 188 161 119 187 216 180 175 199 177 141 137 93 174 140 185 195 194 194 189 200 211 191 171 196 169 203 175 145 152 140 133 143 133 185 168 172 163 175 187 189 174 182 161 200
221 246 252 246 240 234 232 231 179 223 234 253 268 265 258 250 244 233 234 224 211 218 226 224 226 233 217 177 192 185 196 214 207 141 137 278 217 174 172 163 162 161 161 131 134 155 183 189 180 171 145 160 198 182 169 141 174 196 175 148 121 144 97 36 163 178 148 202 209 203 189 193 200 203 169 184 145 155 163 148 148 143 141 141 152 152 180 170 167 181 155 191 201 308 211 157 180
224 216 242 255 268 292 265 273 277 252 250 218 224 247 246 228 231 233 224 213 217 215 228 230 228 229 231 179 178 192 187 189 205 163 172 222 221 190 175 175 176 169 149 123 133 176 178 194 175 153 149 164 197 193 184 167 177 183 162 180 178 187 179 186 197 175 184 190 202 191 158 211 184 168 162 160 154 141 151 145 143 153 152 152 160 156 158 158 175 201 158 192 214 117 308 174 185
243 221 211 226 253 262 263 263 261 253 253 269 203 242 256 247 234 213 217 223 196 209 231 228 229 227 226 229 145 188 183 185 213 181 172 212 218 195 183 183 181 174 116 93 94 159 237 195 171 164 142 162 187 181 169 163 176 175 167 174 195 188 166 200 190 196 211 183 157 207 149 170 168 155 164 158 151 154 147 147 148 155 152 159 158 155 156 173 174 184 155 184 65 214 132 278 218
236 248 213 241 232 242 244 253 253 260 270 120 249 229 269 266 250 202 218 239 212 214 213 223 229 223 230 229 192 164 172 181 177 196 183 199 192 185 182 179 184 149 121 160 169 168 213 201 175 161 150 176 179 173 165 178 179 168 153 162 121 209 186 153 197 212 257 196 167 162 155 170 160 153 151 150 147 149 148 147 147 152 155 158 160 158 164 159 186 149 192 79 82 29 354 234 250
234 78 257 230 249 248 251 241 240 252 257 256 218 224 252 257 262 226 204 227 223 225 212 206 221 236 233 231 221 165 168 169 164 179 196 186 175 178 173 170 170 135 153 171 184 153 177 182 171 151 151 171 172 174 179 177 171 163 159 166 182 184 183 175 197 216 213 200 170 162 158 156 152 145 148 144 148 140 147 141 143 143 150 137 153 146 145 162 155 137 152 167 125 176 170 163 281
246 224 211 263 263 261 249 242 246 236 243 249 251 222 251 254 261 241 209 232 219 221 161 173 246 260 267 259 242 128 156 167 171 187 190 173 172 172 176 168 155 144 148 171 169 151 159 174 163 153 153 197 179 172 177 176 169 167 166 164 173 171 177 180 189 195 207 174 179 157 154 152 145 145 139 142 132 129 137 133 137 135 126 132 164 130 129 119 132 143 138 170 170 182 194 176 195
348 328 229 220 232 236 232 253 253 248 237 242 248 249 242 263 257 332 286 151 93 120 179 201 210 268 260 250 250 159 166 167 183 177 174 168 172 170 166 165 163 154 157 165 157 157 166 161 148 149 167 198 182 179 178 176 169 171 166 164 169 170 186 179 179 196 191 192 159 157 153 146 146 135 135 124 123 118 126 129 128 134 124 131 125 117 145 149 145 156 169 182 163 175 206 193 197
221 226 228 241 226 223 233 229 233 245 249 246 240 249 232 246 201 35 105 89 80 133 189 232 244 232 233 229 233 136 170 169 168 166 169 166 168 170 170 169 174 164 164 160 160 156 165 164 162 156 166 186 195 186 178 167 165 165 157 163 169 172 199 189 185 181 184 168 160 152 152 146 133 130 130 123 126 122 129 117 119 120 125 128 118 120 144 159 169 161 180 183 189 193 188 189 180
225 223 231 234 225 212 228 216 222 227 244 244 253 239 227 227 78 160 96 70 97 65 309 246 227 241 210 212 187 156 168 155 161 171 165 166 172 174 176 173 179 176 178 170 165 163 169 173 172 171 171 177 178 174 171 168 162 153 160 159 175 162 202 237 191 183 177 162 159 156 150 148 144 136 146 142 127 138 139 118 122 122 108 113 102 111 100 22 83 150 146 179 183 194 189 193 185
214 219 216 225 221 214 228 231 231 241 229 247 263 269 248 255 107 142 99 71 55 50 60 230 244 246 174 178 198 192 171 170 177 177 175 177 184 182 183 182 179 176 171 173 171 171 170 172 175 174 173 170 170 170 169 168 157 156 159 162 177 153 214 212 207 176 167 168 165 149 151 144 138 134 135 140 139 148 122 118 109 102 109 109 109 66 87 160 122 170 136 161 185 167 178 182 204
214 218 223 224 232 222 224 237 239 237 262 238 214 235 229 243 110 48 66 66 39 127 78 40 19 224 159 181 146 158 195 193 196 189 191 192 193 189 193 185 180 170 165 173 177 176 175 176 180 180 172 167 167 170 168 169 158 153 166 160 168 136 204 232 189 174 181 161 146 141 139 135 138 139 139 132 141 138 120 126 128 121 114 112 109 145 146 111 134 215 112 124 127 148 146 156 145
205 217 230 237 228 234 261 222 269 278 257 235 197 237 297 28 126 99 132 77 80 72 104 138 144 160 168 180 169 167 181 195 207 195 194 193 189 189 173 178 183 180 174 179 184 184 179 185 183 181 165 167 168 162 169 167 163 160 171 160 169 168 218 213 196 172 160 147 138 150 142 143 140 135 131 133 141 140 136 134 142 128 133 136 152 150 161 142 147 116 116 132 135 128 129 131 134
183 202 217 226 232 230 230 247 255 257 274 266 261 224 134 132 139 150 157 132 126 137 117 124 144 148 158 178 167 178 177 178 193 188 170 171 173 173 175 180 183 179 182 182 185 183 182 188 187 178 170 170 173 164 158 163 157 159 175 185 169 189 201 188 165 149 143 141 140 135 131 118 121 124 131 134 141 136 141 139 137 133 142 153 146 158 150 126 153 129 129 147 141 145 153 129 138
257 230 212 220 231 246 250 265 201 219 247 245 242 243 182 204 194 158 159 136 131 137 130 113 129 138 151 156 161 152 148 138 185 190 176 169 171 171 178 186 183 180 180 179 186 185 185 189 192 179 177 173 172 171 164 172 167 168 176 193 192 184 169 161 151 147 143 144 143 133 133 137 147 143 133 140 140 138 138 132 128 140 145 145 153 157 145 135 142 131 136 146 129 127 129 147 168
239 233 340 248 189 213 209 229 234 241 230 246 235 240 249 65 78 171 180 145 113 117 135 131 106 137 136 127 103 119 141 154 186 192 184 179 179 176 188 187 181 184 185 187 187 185 178 184 194 193 181 174 173 168 169 165 167 167 174 177 168 160 150 150 149 149 142 141 143 137 138 141 139 135 140 141 151 147 142 144 137 145 147 152 159 139 138 153 147 135 147 128 145 176 158 156 145
226 247 243 237 274 243 221 208 244 247 238 240 242 242 147 356 99 126 160 133 160 142 124 122 139 139 118 105 116 130 139 146 158 158 180 179 179 175 186 185 184 193 187 182 170 168 194 182 196 200 188 178 176 170 174 169 166 158 160 158 159 158 152 148 148 146 146 148 150 142 142 148 146 143 145 150 163 149 149 149 154 148 156 158 160 150 170 153 154 155 162 169 163 171 161 166 153
195 219 231 216 231 250 266 323 256 238 249 238 238 234 113 133 337 131 156 128 156 145 144 151 115 96 77 61 67 63 38 28 11 20 347 25 137 161 159 175 181 186 180 82 76 209 202 191 205 28 284 188 186 175 174 178 168 163 162 161 161 156 144 140 144 145 147 151 145 141 145 152 150 155 151 160 164 149 155 156 153 155 158 162 161 171 166 163 167 172 178 146 172 181 164 146 130
207 210 218 224 219 216 223 217 234 249 254 267 249 251 120 10 84 29 105 114 89 129 111 107 107 92 57 53 45 41 36 31 34 43 320 349 290 320 26 169 166 58 26 89 236 274 298 42 356 78 273 306 253 180 166 188 160 169 171 172 164 148 144 140 142 144 145 145 138 142 142 145 156 154 157 164 157 154 153 167 155 158 154 156 171 172 167 177 175 164 142 174 174 180 155 132 172